[[{"header":{"parameterUnit":"m.s-1","parameterCategory":1,"la1":30.2991,"la2":30.254,"lo1":-89.0895,"lo2":-89.0444,"dy":0.0017,"dx":0.0017,"nx":28,"ny":28,"refTime":"2024-03-29T03:00:00:Z","depth":0,"parameterNumber":2,"parameterNumberName":"U-component_of_WINDS"},"data":[0,0,0,0,0,0,0,0,0,0,0,0,0,0,0,0,0,0,0,0,0,0,0,0,0,0,0,0,0,0,0,0,0,0,0,0,0,0,0,0,0,0,0,0,0,0,0,0,0,0,0,0,0,0,0,0,0,0,-4.6312,-4.6312,0,-4.6351,-4.6351,-4.6352,-4.6256,-4.6253,-4.625,-4.6247,-4.6288,-4.6292,-4.6296,0,0,0,0,0,0,0,0,0,0,0,0,0,-4.6157,-4.616,-4.6312,-4.6312,-4.6313,-4.6351,-4.6351,-4.6352,-4.6256,-4.6253,-4.6249,-4.6245,-4.6287,-4.6292,-4.6296,0,0,0,0,0,0,0,0,0,0,0,0,0,-4.6213,-4.6161,-4.6312,-4.627,-4.6266,-4.6351,-4.6351,-4.6352,-4.6257,-4.6252,-4.6248,-4.6244,-4.6286,-4.6291,-4.6297,-4.6425,0,0,-4.6315,-4.6318,0,0,0,0,0,0,0,0,-4.621,-4.6219,-4.6275,-4.6273,-4.6269,-4.6294,-4.6312,-4.6376,-4.6258,-4.6261,-4.6247,-4.6241,-4.6294,-4.6299,-4.6316,-4.6427,-4.6428,-4.6316,-4.6319,-4.6322,-4.6323,0,0,0,0,0,0,0,-4.6206,-4.6217,-4.6327,-4.6276,-4.6273,-4.625,-4.6252,-4.6324,-4.6302,-4.626,-4.6253,-4.6259,-4.6291,-4.6311,-4.6317,-4.6429,-4.6316,-4.6321,-4.6324,-4.6327,-4.6648,-4.6653,0,0,0,0,0,0,-4.6207,-4.6214,-4.6326,-4.6328,-4.6228,-4.6256,-4.6259,-4.629,-4.6301,-4.6299,-4.6263,-4.6254,-4.6303,-4.631,-4.6318,-4.6469,-4.6322,-4.6327,-4.6331,-4.6643,-4.6649,-4.6655,0,0,0,0,0,0,-4.6204,-4.6218,-4.6324,-4.6269,-4.6281,-4.6264,-4.6299,-4.6294,-4.6313,-4.6303,-4.6299,-4.6287,-4.63,-4.6309,-4.6399,-4.6469,-4.633,-4.6335,-4.6637,-4.6645,-4.6652,-4.6772,0,0,0,0,0,0,-4.62,-4.6218,-4.6265,-4.6271,-4.6284,-4.6405,-4.6304,-4.6298,-4.6323,-4.6312,-4.6325,-4.6322,-4.6297,-4.6391,-4.6405,-4.6475,-4.634,-4.6631,-4.6641,-4.6649,-4.6762,-4.6783,-4.6801,0,0,0,0,0,-4.6195,-4.6298,-4.6268,-4.6282,-4.6344,-4.6409,-4.6417,-4.6385,-4.6329,-4.6377,-4.6372,-4.6322,-4.6459,-4.6401,-4.6416,-4.6489,-4.6626,-4.6638,-4.6649,-4.6753,-4.6779,-4.6801,0,0,0,0,0,0,-4.6301,-4.6298,-4.6265,-4.6372,-4.6392,-4.6393,-4.6452,-4.6413,-4.6449,-4.6437,-4.6397,-4.6401,-4.6499,-4.6502,-4.6437,-4.6614,-4.6533,-4.6548,-4.6608,-4.6632,-4.6651,-4.6649,-4.6345,0,0,0,0,0,-4.6336,-4.6389,-4.6384,-4.6479,-4.6491,-4.647,-4.6498,-4.6472,-4.649,-4.6498,-4.6499,-4.6519,-4.6567,-4.6599,-4.6643,-4.6762,-4.6764,-4.682,-4.6839,-4.6855,-4.6869,-4.6934,-4.6959,-4.6691,-4.6691,-4.6691,0,0,-4.6411,-4.6416,-4.6452,-4.6501,-4.6512,-4.6569,-4.6478,-4.6541,-4.6583,-4.6508,-4.6593,-4.6594,-4.6615,-4.6721,-4.6767,-4.6727,-4.6943,-4.6869,-4.6882,-4.6887,-4.6948,-4.6974,-4.6996,-4.6699,-4.6698,-4.6696,0,0,-4.6576,-4.6584,-4.6665,-4.6679,-4.6699,-4.6685,-4.6704,-4.6712,-4.671,-4.6795,-4.674,-4.679,-4.6872,-4.689,-4.6909,-4.7083,-4.7039,-4.7098,-4.72,-4.7264,-4.7286,-4.7304,-4.7368,-4.7391,-4.7112,-4.7112,-4.7112,0,-4.6666,-4.6748,-4.6712,-4.678,-4.6804,-4.6738,-4.6821,-4.6836,-4.6869,-4.6888,-4.6842,-4.6946,-4.6955,-4.7064,-4.7107,-4.7124,-4.7147,-4.7097,-4.7285,-4.7304,-4.732,-4.7381,-4.7404,-4.7119,-4.7118,-4.7118,-4.7117,0,-4.6859,-4.6918,-4.6981,-4.7015,-4.7046,-4.7121,-4.7097,-4.7132,-4.7104,-4.7096,-4.7184,-4.7192,-4.7237,-4.7261,-4.7234,-4.7368,-4.7343,-4.7292,-4.721,-4.7354,-4.741,-4.7432,-4.7129,-4.7127,-4.7125,-4.7123,0,0,-4.7091,-4.7105,-4.7129,-4.7144,-4.7161,-4.7206,-4.7279,-4.7323,-4.7355,-4.738,-4.7441,-4.7514,-4.7467,-4.749,-4.7464,-4.752,-4.766,-4.7463,-4.7463,-4.7501,-4.781,-4.7849,-4.7876,-4.763,-4.7635,-4.7638,-4.7809,0,-4.7255,-4.738,-4.735,-4.7473,-4.7528,-4.7467,-4.7531,-4.7549,-4.7543,-4.7589,-4.7583,-4.7635,-4.7569,-4.7583,-4.7636,-4.7632,-4.7722,-4.7619,-4.7688,-4.7691,-4.7686,-4.7905,-4.7946,-4.8107,-4.783,-4.7834,-4.7837,0,-4.7463,-4.7497,-4.7626,-4.7636,-4.7658,-4.7716,-4.7754,-4.7798,-4.7819,-4.7811,-4.7837,-4.7801,-4.7874,-4.7792,-4.7893,-4.7824,-4.7851,-4.7853,-4.7859,-4.7865,-4.7773,-4.7919,-4.8157,-4.8182,-4.787,-4.7868,-4.7865,0,-4.7622,-4.7699,-4.7787,-4.7802,-4.7815,-4.7858,-4.7865,-4.7881,-4.7909,-4.7943,-4.7962,-4.8004,-4.8028,-4.8062,-4.8039,-4.7981,-4.8145,-4.806,-4.8142,-4.8143,-4.818,-4.8178,-4.8428,-4.8196,-4.8195,-4.8195,-4.8194,0,-4.7809,-4.789,-4.7858,-4.7913,-4.8003,-4.7969,-4.8059,-4.806,-4.8075,-4.8129,-4.8079,-4.8131,-4.8096,-4.8146,-4.8128,-4.8216,-4.8227,-4.8224,-4.8218,-4.8229,-4.823,-4.8247,-4.8235,-4.8201,-4.82,-4.8198,-4.8197,0,-4.8001,-4.7983,-4.8075,-4.808,-4.8084,-4.815,-4.8155,-4.8207,-4.8197,-4.8267,-4.8281,-4.8267,-4.8323,-4.8303,-4.8363,-4.8351,-4.8464,-4.8443,-4.8458,-4.8453,-4.8536,-4.8529,-4.8806,-4.8842,-4.8586,-4.8588,-4.859,0,-4.8122,-4.8184,-4.8196,-4.8229,-4.824,-4.8293,-4.8323,-4.8291,-4.8324,-4.8353,-4.8401,-4.8453,-4.8492,-4.8585,-4.8581,-4.8627,-4.8608,-4.8702,-4.8615,-4.8624,-4.8612,-4.8609,-4.8616,-4.872,-4.8723,-4.8725,-4.8727,0,-4.8339,-4.8328,-4.8371,-4.8414,-4.845,-4.8481,-4.8508,-4.8538,-4.8509,-4.8548,-4.8605,-4.8636,-4.8698,-4.875,-4.8792,-4.8801,-4.8761,-4.8755,-4.8776,-4.8789,-4.8795,-4.8794,-4.8507,-4.8749,-4.8747,-4.8745,-4.8744,-4.8743,-4.8501,-4.8553,-4.8571,-4.8622,-4.8639,-4.8666,-4.8715,-4.8712,-4.8759,-4.8807,-4.8785,-4.8852,-4.8872,-4.8924,-4.8939,-4.8991,-4.8955,-4.8986,-4.8994,-4.9002,-4.9014,-4.8786,-4.8998,-4.8998,-4.8997,-4.8996,-4.8996,0,-4.8717,-4.8725,-4.8773,-4.8813,-4.8854,-4.8811,-4.8839,-4.8877,-4.8935,-4.8957,-4.8998,-4.9064,-4.9116,-4.9116,-4.9164,-4.9206,-4.9189,-4.922,-4.9217,-4.922,-4.9042,-4.902,-4.9233,-4.9233,-4.9233,-4.9233,-4.9233,-4.9233,-4.8834,-4.8922,-4.8913,-4.9009,-4.9017,-4.9081,-4.9101,-4.9126,-4.9144,-4.922,-4.9263,-4.9262,-4.9276,-4.9325,-4.9371,-4.937,-4.9391,-4.9429,-4.9422,-4.9256,-4.9232,-4.921,-4.9188,-4.9434,-4.9434,-4.9595,-4.9597,-4.9598]},{"header":{"parameterUnit":"m.s-1","parameterCategory":1,"la1":30.2991,"la2":30.254,"lo1":-89.0895,"lo2":-89.0444,"dy":0.0017,"dx":0.0017,"nx":28,"ny":28,"refTime":"2024-03-29T03:00:00:Z","depth":0,"parameterNumber":3,"parameterNumberName":"V-component_of_WINDS"},"data":[0,0,0,0,0,0,0,0,0,0,0,0,0,0,0,0,0,0,0,0,0,0,0,0,0,0,0,0,0,0,0,0,0,0,0,0,0,0,0,0,0,0,0,0,0,0,0,0,0,0,0,0,0,0,0,0,0,0,0.3692,0.3692,0,0.3689,0.3689,0.3689,0.3707,0.3708,0.3708,0.3709,0.3704,0.3703,0.3703,0,0,0,0,0,0,0,0,0,0,0,0,0,0.3712,0.3712,0.3692,0.3692,0.3692,0.3689,0.3689,0.3689,0.3707,0.3708,0.3708,0.3709,0.3704,0.3703,0.3702,0,0,0,0,0,0,0,0,0,0,0,0,0,0.3706,0.3711,0.3692,0.3701,0.3701,0.3689,0.3689,0.3689,0.3707,0.3708,0.3709,0.3709,0.3704,0.3703,0.3702,0.3681,0,0,0.37,0.3699,0,0,0,0,0,0,0,0,0.3706,0.3705,0.3699,0.37,0.3701,0.3699,0.3694,0.3686,0.3707,0.3705,0.3709,0.371,0.3702,0.3701,0.3699,0.3681,0.3681,0.3699,0.3699,0.3699,0.3698,0,0,0,0,0,0,0,0.3706,0.3705,0.3691,0.3699,0.37,0.3704,0.3704,0.3693,0.3699,0.3705,0.3706,0.3706,0.3702,0.3699,0.3699,0.3681,0.37,0.3699,0.3698,0.3698,0.3646,0.3646,0,0,0,0,0,0,0.3706,0.3705,0.3691,0.3691,0.3705,0.3703,0.3703,0.3699,0.3699,0.37,0.3705,0.3707,0.3701,0.37,0.3698,0.3674,0.3699,0.3698,0.3697,0.3647,0.3646,0.3645,0,0,0,0,0,0,0.3706,0.3704,0.3691,0.3698,0.3697,0.3702,0.3697,0.3699,0.3696,0.3699,0.37,0.3702,0.3701,0.37,0.3686,0.3674,0.3697,0.3696,0.3648,0.3647,0.3646,0.3625,0,0,0,0,0,0,0.3707,0.3704,0.3696,0.3698,0.3697,0.3679,0.3697,0.3698,0.3695,0.3697,0.3696,0.3697,0.3702,0.3687,0.3685,0.3673,0.3696,0.3649,0.3648,0.3646,0.3627,0.3623,0.362,0,0,0,0,0,0.3707,0.369,0.3696,0.3694,0.3687,0.3678,0.3677,0.3684,0.3694,0.3686,0.3688,0.3697,0.3676,0.3685,0.3683,0.3671,0.365,0.3648,0.3646,0.3628,0.3624,0.3621,0,0,0,0,0,0,0.3686,0.369,0.3697,0.368,0.3679,0.3681,0.3671,0.3679,0.3674,0.3676,0.3684,0.3684,0.3669,0.3669,0.3679,0.3651,0.3665,0.3662,0.3652,0.3648,0.3645,0.3645,0.3695,0,0,0,0,0,0.3679,0.3672,0.3676,0.3661,0.366,0.3666,0.3662,0.3668,0.3666,0.3665,0.3666,0.3664,0.3658,0.3653,0.3646,0.3627,0.3628,0.3618,0.3615,0.3612,0.361,0.3601,0.3596,0.3639,0.3639,0.364,0,0,0.3665,0.3667,0.3662,0.3657,0.3656,0.3648,0.3665,0.3655,0.365,0.3664,0.3651,0.3652,0.365,0.3633,0.3626,0.3633,0.3598,0.361,0.3608,0.3607,0.3598,0.3594,0.3591,0.3638,0.3638,0.3639,0,0,0.3636,0.3636,0.3624,0.3624,0.3623,0.3627,0.3625,0.3626,0.3628,0.3615,0.3626,0.3619,0.3607,0.3605,0.3603,0.3574,0.3582,0.3572,0.3555,0.3546,0.3542,0.354,0.353,0.3526,0.357,0.357,0.357,0,0.3618,0.3607,0.3616,0.3607,0.3604,0.3618,0.3605,0.3604,0.3602,0.36,0.3607,0.3593,0.3593,0.3577,0.357,0.3568,0.3565,0.3572,0.3542,0.3539,0.3537,0.3528,0.3524,0.3569,0.3569,0.3569,0.3569,0,0.3586,0.3578,0.3568,0.3567,0.3563,0.3552,0.3559,0.3555,0.3561,0.3564,0.3552,0.3552,0.3547,0.3543,0.3549,0.3528,0.3532,0.3541,0.3555,0.3531,0.3523,0.3519,0.3567,0.3567,0.3568,0.3568,0,0,0.3542,0.3547,0.3543,0.3543,0.3544,0.3538,0.3528,0.3523,0.3519,0.3517,0.3509,0.3499,0.3508,0.3505,0.3511,0.3503,0.3481,0.3513,0.3513,0.3507,0.3459,0.3452,0.3448,0.3487,0.3486,0.3485,0.3459,0,0.3514,0.3497,0.3506,0.3488,0.3481,0.3494,0.3486,0.3485,0.3488,0.3483,0.3486,0.3479,0.3491,0.349,0.3482,0.3485,0.3471,0.3487,0.3479,0.3478,0.3479,0.3443,0.3436,0.3411,0.3456,0.3455,0.3455,0,0.3478,0.3476,0.3458,0.3461,0.3459,0.3451,0.3448,0.3443,0.3443,0.3446,0.3444,0.3452,0.3442,0.3456,0.3442,0.3453,0.345,0.3451,0.345,0.3449,0.3465,0.3442,0.3403,0.3399,0.3449,0.345,0.345,0,0.3448,0.3441,0.3429,0.3429,0.3432,0.3426,0.3428,0.3429,0.3426,0.3423,0.3422,0.3418,0.3415,0.3412,0.3419,0.3428,0.3405,0.3419,0.3407,0.3407,0.3401,0.3401,0.3361,0.3399,0.3399,0.3399,0.3399,0,0.3416,0.3404,0.3416,0.3409,0.3396,0.3406,0.3394,0.3396,0.3397,0.3391,0.3402,0.3395,0.3405,0.3399,0.3404,0.3393,0.3391,0.3393,0.3395,0.3392,0.3392,0.339,0.3392,0.3398,0.3398,0.3399,0.3399,0,0.338,0.3387,0.3376,0.3381,0.3382,0.3373,0.3377,0.337,0.3375,0.3367,0.3365,0.3372,0.3366,0.3373,0.3367,0.337,0.3355,0.3359,0.3355,0.3356,0.3344,0.3345,0.3301,0.3296,0.3337,0.3337,0.3336,0,0.3359,0.335,0.3355,0.3352,0.3353,0.3347,0.3345,0.3355,0.3352,0.3352,0.3345,0.3341,0.3338,0.3328,0.3332,0.3328,0.3332,0.3317,0.3331,0.3329,0.3332,0.3332,0.3331,0.3314,0.3313,0.3313,0.3312,0,0.332,0.3325,0.3321,0.3319,0.3316,0.3315,0.3315,0.3311,0.3321,0.3317,0.3312,0.331,0.3305,0.33,0.3298,0.3298,0.3307,0.3308,0.3305,0.3302,0.3301,0.3302,0.3347,0.3309,0.3309,0.331,0.331,0.331,0.3291,0.3285,0.3287,0.3283,0.3284,0.3284,0.3278,0.3283,0.3279,0.3276,0.3282,0.3275,0.3276,0.3274,0.3274,0.3269,0.3275,0.3271,0.327,0.3268,0.3267,0.3302,0.3268,0.3269,0.3269,0.3269,0.3269,0,0.3253,0.3256,0.3252,0.3252,0.3249,0.3259,0.3259,0.3255,0.325,0.3251,0.3248,0.3242,0.3238,0.3242,0.3239,0.3234,0.3238,0.3233,0.3233,0.3233,0.3261,0.3264,0.3229,0.323,0.323,0.323,0.323,0.323,0.3233,0.3223,0.3228,0.3219,0.3221,0.3216,0.3215,0.3215,0.3216,0.3209,0.3206,0.3209,0.3212,0.3209,0.3205,0.3207,0.3205,0.3198,0.3201,0.3227,0.3231,0.3235,0.3238,0.3198,0.3198,0.3174,0.3173,0.3173]}]]